Main page
Satellite images Climate Cyclones Lightning AirportsFAQ Languages Contact Newsletter About
Weather : Europe Africa North America South America Asia Australia-Oceania Others

, Trang, Trang Airport

48567

latitude: , longitude: Thailand, elevation: 07-31N m


METAR: VTST 240500Z 24005KT 9999 SCT018 SCT022 BKN100 29/26 Q1009